This is the latest recevied weather packets stored in our database for station/object KB9PMA-1. If no packets are shown the sender has not sent any weather packets the latest 10 day(s).
| Time | Temp. | Humidity | Pressure | Rain* | Wind** | Luminosity | Snow |
|---|---|---|---|---|---|---|---|
| 1778111273 | 12.22° C | 63% | 1014.9 hPa | 0 mm | - | - | - |
| 1778110973 | 12.78° C | 61% | 1014.9 hPa | 0 mm | - | - | - |
| 1778110673 | 12.78° C | 64% | 1014.9 hPa | 0 mm | - | - | - |
| 1778110373 | 12.78° C | 61% | 1014.8 hPa | 0 mm | - | - | - |
| 1778110073 | 12.78° C | 60% | 1014.9 hPa | 0 mm | - | - | - |
| 1778109773 | 12.78° C | 61% | 1015 hPa | 0 mm | - | - | - |
| 1778109473 | 12.78° C | 61% | 1015 hPa | 0 mm | - | - | - |
| 1778109173 | 13.33° C | 55% | 1015 hPa | 0 mm | - | - | - |
| 1778108873 | 13.33° C | 54% | 1015 hPa | 0 mm | - | - | - |
| 1778108573 | 13.33° C | 55% | 1015 hPa | 0 mm | - | - | - |
| 1778108273 | 13.33° C | 56% | 1015 hPa | 0 mm | - | - | - |
| 1778107973 | 13.33° C | 55% | 1015 hPa | 0 mm | - | - | - |
| 1778107673 | 13.33° C | 55% | 1015 hPa | 0 mm | - | - | - |
| 1778107373 | 13.33° C | 52% | 1015 hPa | 0 mm | - | - | - |
| 1778107073 | 13.89° C | 51% | 1015 hPa | 0 mm | - | - | - |
| 1778106773 | 13.89° C | 53% | 1015 hPa | 0 mm | - | - | - |
| 1778106473 | 13.89° C | 51% | 1015 hPa | 0 mm | - | - | - |
| 1778106173 | 14.44° C | 53% | 1015.1 hPa | 0 mm | - | - | - |
| 1778105873 | 13.89° C | 50% | 1015 hPa | 0 mm | - | - | - |
| 1778105573 | 13.89° C | 52% | 1015 hPa | 0 mm | - | - | - |
| 1778105273 | 13.89° C | 49% | 1014.9 hPa | 0 mm | - | - | - |
| 1778104973 | 13.89° C | 50% | 1014.9 hPa | 0 mm | - | - | - |
| 1778104673 | 14.44° C | 53% | 1014.8 hPa | 0 mm | - | - | - |
| 1778104373 | 14.44° C | 50% | 1014.8 hPa | 0 mm | - | - | - |
| 1778104073 | 14.44° C | 52% | 1014.9 hPa | 0 mm | - | - | - |
* Rain latest hour (hover to see other rain measurements)
** Current wind speed in m/s (hover to see current wind gust speed)